Time,TemperatureF,DewpointF,PressureIn,WindDirection,WindDirectionDegrees,WindSpeedMPH,WindSpeedGustMPH,Humidity,HourlyPrecipIn,Conditions,Clouds,dailyrainin,SoftwareType,DateUTC
2013-01-15 00:00:00,24.2,-4.3,30.51,South,190,5.0,10.0,28,0.00,,,0.00,Wunderground v.1.15,2013-01-15 08:00:00,
2013-01-15 00:10:00,24.5,-3.3,30.52,South,190,6.0,6.0,29,0.00,,,0.00,Wunderground v.1.15,2013-01-15 08:10:00,
2013-01-15 00:20:00,24.4,-3.4,30.52,South,190,3.0,3.0,29,0.00,,,0.00,Wunderground v.1.15,2013-01-15 08:20:00,
2013-01-15 00:30:00,24.3,-3.5,30.52,South,190,0.0,10.0,29,0.00,,,0.00,Wunderground v.1.15,2013-01-15 08:30:00,
2013-01-15 00:40:00,24.5,-3.3,30.53,South,190,0.0,10.0,29,0.00,,,0.00,Wunderground v.1.15,2013-01-15 08:40:00,
2013-01-15 00:50:00,23.0,-4.6,30.53,South,190,4.0,10.0,29,0.00,,,0.00,Wunderground v.1.15,2013-01-15 08:50:00,
2013-01-15 01:00:00,21.3,-4.7,30.53,South,190,3.0,10.0,31,0.00,,,0.00,Wunderground v.1.15,2013-01-15 09:00:00,
2013-01-15 01:10:00,22.9,-4.0,30.54,South,190,3.0,3.0,30,0.00,,,0.00,Wunderground v.1.15,2013-01-15 09:10:00,
2013-01-15 01:20:00,23.7,-3.3,30.55,South,190,2.0,10.0,30,0.00,,,0.00,Wunderground v.1.15,2013-01-15 09:20:00,
2013-01-15 01:30:00,25.5,-2.4,30.55,South,190,6.0,10.0,29,0.00,,,0.00,Wunderground v.1.15,2013-01-15 09:30:00,
2013-01-15 01:40:00,25.2,-4.2,30.55,South,190,5.0,5.0,27,0.00,,,0.00,Wunderground v.1.15,2013-01-15 09:40:00,
2013-01-15 01:50:00,20.6,-5.3,30.55,South,190,2.0,2.0,31,0.00,,,0.00,Wunderground v.1.15,2013-01-15 09:50:00,
2013-01-15 02:00:00,19.1,-6.6,30.56,South,190,2.0,10.0,31,0.00,,,0.00,Wunderground v.1.15,2013-01-15 10:00:00,
2013-01-15 02:10:00,18.7,-6.3,30.56,South,190,1.0,10.0,32,0.00,,,0.00,Wunderground v.1.15,2013-01-15 10:10:00,
2013-01-15 02:20:00,18.6,-6.4,30.57,South,190,4.0,10.0,32,0.00,,,0.00,Wunderground v.1.15,2013-01-15 10:20:00,
2013-01-15 02:30:00,18.8,-6.2,30.57,South,190,4.0,10.0,32,0.00,,,0.00,Wunderground v.1.15,2013-01-15 10:30:00,
2013-01-15 02:40:00,20.1,-5.1,30.57,South,190,4.0,4.0,32,0.00,,,0.00,Wunderground v.1.15,2013-01-15 10:40:00,
2013-01-15 02:50:00,21.1,-4.2,30.57,South,190,2.0,10.0,32,0.00,,,0.00,Wunderground v.1.15,2013-01-15 10:50:00,
2013-01-15 03:00:00,21.8,-4.3,30.57,South,190,2.0,2.0,31,0.00,,,0.00,Wunderground v.1.15,2013-01-15 11:00:00,
2013-01-15 03:10:00,22.2,-3.9,30.57,South,190,1.0,10.0,31,0.00,,,0.00,Wunderground v.1.15,2013-01-15 11:10:00,
2013-01-15 03:20:00,21.5,-5.2,30.58,South,190,1.0,10.0,30,0.00,,,0.00,Wunderground v.1.15,2013-01-15 11:20:00,
2013-01-15 03:30:00,21.2,-4.8,30.57,South,190,1.0,10.0,31,0.00,,,0.00,Wunderground v.1.15,2013-01-15 11:30:00,
2013-01-15 03:40:00,21.8,-4.3,30.58,South,190,2.0,2.0,31,0.00,,,0.00,Wunderground v.1.15,2013-01-15 11:40:00,
2013-01-15 03:50:00,22.7,-3.5,30.58,South,190,1.0,1.0,31,0.00,,,0.00,Wunderground v.1.15,2013-01-15 11:50:00,
2013-01-15 04:00:00,23.3,-2.9,30.57,South,190,2.0,10.0,31,0.00,,,0.00,Wunderground v.1.15,2013-01-15 12:00:00,
2013-01-15 04:10:00,22.8,-4.1,30.57,South,190,2.0,10.0,30,0.00,,,0.00,Wunderground v.1.15,2013-01-15 12:10:00,
2013-01-15 04:20:00,21.6,-4.4,30.57,South,190,3.0,3.0,31,0.00,,,0.00,Wunderground v.1.15,2013-01-15 12:20:00,
2013-01-15 04:30:00,21.6,-4.4,30.57,South,190,1.0,1.0,31,0.00,,,0.00,Wunderground v.1.15,2013-01-15 12:30:00,
2013-01-15 04:40:00,20.0,-5.2,30.58,South,190,0.0,10.0,32,0.00,,,0.00,Wunderground v.1.15,2013-01-15 12:40:00,
2013-01-15 04:50:00,19.1,-6.0,30.58,South,190,3.0,10.0,32,0.00,,,0.00,Wunderground v.1.15,2013-01-15 12:50:00,
2013-01-15 05:00:00,19.5,-5.0,30.59,South,190,4.0,10.0,33,0.00,,,0.00,Wunderground v.1.15,2013-01-15 13:00:00,
2013-01-15 05:10:00,21.0,-4.3,30.59,South,190,3.0,3.0,32,0.00,,,0.00,Wunderground v.1.15,2013-01-15 13:10:00,
2013-01-15 05:20:00,22.2,-3.2,30.59,South,190,1.0,10.0,32,0.00,,,0.00,Wunderground v.1.15,2013-01-15 13:20:00,
2013-01-15 05:30:00,22.2,-4.6,30.60,South,190,0.0,10.0,30,0.00,,,0.00,Wunderground v.1.15,2013-01-15 13:30:00,
2013-01-15 05:40:00,20.3,-4.9,30.60,South,190,0.0,10.0,32,0.00,,,0.00,Wunderground v.1.15,2013-01-15 13:40:00,
2013-01-15 05:50:00,19.7,-5.4,30.60,South,190,0.0,10.0,32,0.00,,,0.00,Wunderground v.1.15,2013-01-15 13:50:00,
2013-01-15 06:00:00,19.4,-3.3,30.61,South,190,0.0,10.0,36,0.00,,,0.00,Wunderground v.1.15,2013-01-15 14:00:00,
2013-01-15 06:10:00,19.1,-5.3,30.61,South,190,0.0,10.0,33,0.00,,,0.00,Wunderground v.1.15,2013-01-15 14:10:00,
2013-01-15 06:20:00,19.0,-5.4,30.61,South,190,0.0,10.0,33,0.00,,,0.00,Wunderground v.1.15,2013-01-15 14:20:00,
2013-01-15 06:30:00,19.3,-5.2,30.62,South,190,0.0,10.0,33,0.00,,,0.00,Wunderground v.1.15,2013-01-15 14:30:00,
2013-01-15 06:40:00,21.2,-3.5,30.62,South,190,2.0,10.0,33,0.00,,,0.00,Wunderground v.1.15,2013-01-15 14:40:00,
2013-01-15 06:50:00,20.3,-5.6,30.62,South,190,3.0,3.0,31,0.00,,,0.00,Wunderground v.1.15,2013-01-15 14:50:00,
2013-01-15 07:00:00,17.1,-7.8,30.63,South,190,1.0,10.0,32,0.00,,,0.00,Wunderground v.1.15,2013-01-15 15:00:00,
2013-01-15 07:10:00,15.8,-7.7,30.63,South,190,2.0,2.0,34,0.00,,,0.00,Wunderground v.1.15,2013-01-15 15:10:00,
2013-01-15 07:20:00,16.6,-6.4,30.64,South,190,0.0,10.0,35,0.00,,,0.00,Wunderground v.1.15,2013-01-15 15:20:00,
2013-01-15 07:30:00,18.0,-5.7,30.64,South,190,0.0,10.0,34,0.00,,,0.00,Wunderground v.1.15,2013-01-15 15:30:00,
2013-01-15 07:40:00,18.6,-5.8,30.64,South,190,4.0,10.0,33,0.00,,,0.00,Wunderground v.1.15,2013-01-15 15:40:00,
2013-01-15 07:50:00,20.7,-3.9,30.64,South,190,2.0,2.0,33,0.00,,,0.00,Wunderground v.1.15,2013-01-15 15:50:00,
2013-01-15 08:00:00,22.5,-3.0,30.63,South,190,0.0,10.0,32,0.00,,,0.00,Wunderground v.1.15,2013-01-15 16:00:00,
2013-01-15 08:10:00,22.6,-3.6,30.63,South,190,2.0,2.0,31,0.00,,,0.00,Wunderground v.1.15,2013-01-15 16:10:00,
2013-01-15 08:20:00,22.9,-3.3,30.63,South,190,0.0,10.0,31,0.00,,,0.00,Wunderground v.1.15,2013-01-15 16:20:00,
2013-01-15 08:30:00,23.0,-3.9,30.63,South,190,2.0,10.0,30,0.00,,,0.00,Wunderground v.1.15,2013-01-15 16:30:00,
2013-01-15 08:40:00,22.7,-4.1,30.63,South,190,3.0,3.0,30,0.00,,,0.00,Wunderground v.1.15,2013-01-15 16:40:00,
2013-01-15 08:50:00,22.5,-4.3,30.63,South,190,3.0,10.0,30,0.00,,,0.00,Wunderground v.1.15,2013-01-15 16:50:00,
2013-01-15 09:00:00,23.3,-3.6,30.64,South,190,1.0,1.0,30,0.00,,,0.00,Wunderground v.1.15,2013-01-15 17:00:00,
2013-01-15 09:10:00,24.6,-3.2,30.64,South,190,0.0,10.0,29,0.00,,,0.00,Wunderground v.1.15,2013-01-15 17:10:00,
2013-01-15 09:20:00,25.8,-2.9,30.63,South,190,0.0,10.0,28,0.00,,,0.00,Wunderground v.1.15,2013-01-15 17:20:00,
2013-01-15 09:30:00,27.2,-1.7,30.62,South,190,0.0,10.0,28,0.00,,,0.00,Wunderground v.1.15,2013-01-15 17:30:00,
2013-01-15 09:40:00,28.2,-1.6,30.62,South,190,0.0,10.0,27,0.00,,,0.00,Wunderground v.1.15,2013-01-15 17:40:00,
2013-01-15 09:50:00,29.5,-0.4,30.61,South,190,0.0,10.0,27,0.00,,,0.00,Wunderground v.1.15,2013-01-15 17:50:00,
2013-01-15 10:00:00,30.5,-0.4,30.60,South,190,1.0,1.0,26,0.00,,,0.00,Wunderground v.1.15,2013-01-15 18:00:00,
2013-01-15 10:10:00,31.4,0.4,30.60,South,190,0.0,10.0,26,0.00,,,0.00,Wunderground v.1.15,2013-01-15 18:10:00,
2013-01-15 10:20:00,33.4,1.3,30.59,South,190,0.0,10.0,25,0.00,,,0.00,Wunderground v.1.15,2013-01-15 18:20:00,
2013-01-15 10:30:00,34.8,1.6,30.58,South,190,0.0,10.0,24,0.00,,,0.00,Wunderground v.1.15,2013-01-15 18:30:00,
2013-01-15 10:40:00,35.0,1.8,30.57,South,190,1.0,10.0,24,0.00,,,0.00,Wunderground v.1.15,2013-01-15 18:40:00,
2013-01-15 10:50:00,35.5,2.2,30.56,South,190,1.0,1.0,24,0.00,,,0.00,Wunderground v.1.15,2013-01-15 18:50:00,
2013-01-15 11:00:00,36.2,2.8,30.55,South,190,1.0,1.0,24,0.00,,,0.00,Wunderground v.1.15,2013-01-15 19:00:00,
2013-01-15 11:10:00,37.1,2.7,30.55,South,190,1.0,1.0,23,0.00,,,0.00,Wunderground v.1.15,2013-01-15 19:10:00,
2013-01-15 11:20:00,37.8,3.2,30.54,South,190,2.0,10.0,23,0.00,,,0.00,Wunderground v.1.15,2013-01-15 19:20:00,
2013-01-15 11:30:00,38.1,3.5,30.53,South,190,2.0,10.0,23,0.00,,,0.00,Wunderground v.1.15,2013-01-15 19:30:00,
2013-01-15 11:40:00,38.9,3.2,30.53,South,190,2.0,10.0,22,0.00,,,0.00,Wunderground v.1.15,2013-01-15 19:40:00,
2013-01-15 11:50:00,39.8,4.0,30.52,South,190,2.0,10.0,22,0.00,,,0.00,Wunderground v.1.15,2013-01-15 19:50:00,
2013-01-15 12:00:00,41.2,5.2,30.53,South,190,1.0,10.0,22,0.00,,,0.00,Wunderground v.1.15,2013-01-15 20:00:00,
2013-01-15 12:10:00,42.2,5.0,30.52,South,190,2.0,10.0,21,0.00,,,0.00,Wunderground v.1.15,2013-01-15 20:10:00,
2013-01-15 12:20:00,42.5,5.2,30.51,South,190,4.0,4.0,21,0.00,,,0.00,Wunderground v.1.15,2013-01-15 20:20:00,
2013-01-15 12:30:00,43.2,5.8,30.51,South,190,3.0,10.0,21,0.00,,,0.00,Wunderground v.1.15,2013-01-15 20:30:00,
2013-01-15 12:40:00,43.7,6.2,30.51,South,190,4.0,10.0,21,0.00,,,0.00,Wunderground v.1.15,2013-01-15 20:40:00,
2013-01-15 12:50:00,44.1,6.6,30.50,SSW,202,4.0,4.0,21,0.00,,,0.00,Wunderground v.1.15,2013-01-15 20:50:00,
2013-01-15 13:00:00,44.4,5.8,30.50,SW,219,4.0,4.0,20,0.00,,,0.00,Wunderground v.1.15,2013-01-15 21:00:00,
2013-01-15 13:10:00,45.1,6.3,30.49,SW,234,3.0,10.0,20,0.00,,,0.00,Wunderground v.1.15,2013-01-15 21:10:00,
2013-01-15 13:20:00,45.7,6.8,30.49,SW,234,3.0,10.0,20,0.00,,,0.00,Wunderground v.1.15,2013-01-15 21:20:00,
2013-01-15 13:30:00,45.4,6.6,30.49,SW,236,5.0,5.0,20,0.00,,,0.00,Wunderground v.1.15,2013-01-15 21:30:00,
2013-01-15 13:40:00,46.1,7.2,30.49,SW,236,2.0,2.0,20,0.00,,,0.00,Wunderground v.1.15,2013-01-15 21:40:00,
2013-01-15 13:50:00,46.4,7.4,30.48,SW,236,4.0,4.0,20,0.00,,,0.00,Wunderground v.1.15,2013-01-15 21:50:00,
2013-01-15 14:00:00,45.9,7.0,30.48,SW,236,3.0,3.0,20,0.00,,,0.00,Wunderground v.1.15,2013-01-15 22:00:00,
2013-01-15 14:10:00,46.4,7.4,30.48,SW,236,2.0,2.0,20,0.00,,,0.00,Wunderground v.1.15,2013-01-15 22:10:00,
2013-01-15 14:20:00,46.9,7.8,30.48,SW,236,4.0,4.0,20,0.00,,,0.00,Wunderground v.1.15,2013-01-15 22:20:00,
2013-01-15 14:30:00,46.8,7.8,30.48,SW,236,5.0,5.0,20,0.00,,,0.00,Wunderground v.1.15,2013-01-15 22:30:00,
2013-01-15 14:40:00,47.0,7.9,30.48,WSW,237,5.0,10.0,20,0.00,,,0.00,Wunderground v.1.15,2013-01-15 22:40:00,
2013-01-15 14:50:00,47.0,7.9,30.47,WSW,238,4.0,4.0,20,0.00,,,0.00,Wunderground v.1.15,2013-01-15 22:50:00,
2013-01-15 15:00:00,47.4,8.3,30.47,WSW,238,5.0,10.0,20,0.00,,,0.00,Wunderground v.1.15,2013-01-15 23:00:00,
2013-01-15 15:10:00,47.9,8.7,30.47,WSW,238,4.0,10.0,20,0.00,,,0.00,Wunderground v.1.15,2013-01-15 23:10:00,
2013-01-15 15:20:00,48.0,8.8,30.47,WSW,238,4.0,4.0,20,0.00,,,0.00,Wunderground v.1.15,2013-01-15 23:20:00,
2013-01-15 15:30:00,48.6,9.3,30.48,WSW,238,2.0,2.0,20,0.00,,,0.00,Wunderground v.1.15,2013-01-15 23:30:00,
2013-01-15 15:40:00,48.8,9.4,30.47,WSW,238,1.0,10.0,20,0.00,,,0.00,Wunderground v.1.15,2013-01-15 23:40:00,
2013-01-15 15:50:00,48.5,9.2,30.47,WSW,238,2.0,10.0,20,0.00,,,0.00,Wunderground v.1.15,2013-01-15 23:50:00,
2013-01-15 16:00:00,48.1,8.8,30.47,WSW,237,3.0,10.0,20,0.00,,,0.00,Wunderground v.1.15,2013-01-16 00:00:00,
2013-01-15 16:10:00,48.1,8.8,30.47,SW,236,4.0,10.0,20,0.00,,,0.00,Wunderground v.1.15,2013-01-16 00:10:00,
2013-01-15 16:20:00,48.1,8.8,30.47,SW,235,4.0,10.0,20,0.00,,,0.00,Wunderground v.1.15,2013-01-16 00:20:00,
2013-01-15 16:30:00,48.1,8.8,30.47,SW,235,3.0,3.0,20,0.00,,,0.00,Wunderground v.1.15,2013-01-16 00:30:00,
2013-01-15 16:40:00,48.2,8.9,30.47,SW,234,0.0,10.0,20,0.00,,,0.00,Wunderground v.1.15,2013-01-16 00:40:00,
2013-01-15 16:50:00,48.5,9.2,30.47,SW,235,0.0,10.0,20,0.00,,,0.00,Wunderground v.1.15,2013-01-16 00:50:00,
2013-01-15 17:00:00,47.3,8.2,30.47,SW,235,3.0,10.0,20,0.00,,,0.00,Wunderground v.1.15,2013-01-16 01:00:00,
2013-01-15 17:10:00,46.6,7.6,30.47,SW,235,4.0,10.0,20,0.00,,,0.00,Wunderground v.1.15,2013-01-16 01:10:00,
2013-01-15 17:20:00,45.5,7.8,30.48,SW,234,3.0,3.0,21,0.00,,,0.00,Wunderground v.1.15,2013-01-16 01:20:00,
2013-01-15 17:30:00,45.9,8.1,30.48,SW,235,2.0,2.0,21,0.00,,,0.00,Wunderground v.1.15,2013-01-16 01:30:00,
2013-01-15 17:40:00,45.2,7.5,30.49,SW,235,1.0,1.0,21,0.00,,,0.00,Wunderground v.1.15,2013-01-16 01:40:00,
2013-01-15 17:50:00,43.8,7.4,30.49,SW,235,1.0,1.0,22,0.00,,,0.00,Wunderground v.1.15,2013-01-16 01:50:00,
2013-01-15 18:00:00,41.8,5.7,30.50,SW,234,2.0,10.0,22,0.00,,,0.00,Wunderground v.1.15,2013-01-16 02:00:00,
2013-01-15 18:10:00,39.7,4.9,30.50,SW,235,6.0,10.0,23,0.00,,,0.00,Wunderground v.1.15,2013-01-16 02:10:00,
2013-01-15 18:20:00,38.7,4.9,30.51,SW,234,7.0,10.0,24,0.00,,,0.00,Wunderground v.1.15,2013-01-16 02:20:00,
2013-01-15 18:30:00,38.3,4.6,30.51,SW,235,7.0,10.0,24,0.00,,,0.00,Wunderground v.1.15,2013-01-16 02:30:00,
2013-01-15 18:40:00,38.1,4.4,30.51,SSW,193,8.0,8.0,24,0.00,,,0.00,Wunderground v.1.15,2013-01-16 02:40:00,
2013-01-15 18:50:00,38.2,4.5,30.51,South,178,8.0,10.0,24,0.00,,,0.00,Wunderground v.1.15,2013-01-16 02:50:00,
2013-01-15 19:00:00,37.9,4.3,30.52,South,173,7.0,7.0,24,0.00,,,0.00,Wunderground v.1.15,2013-01-16 03:00:00,
2013-01-15 19:10:00,37.5,4.8,30.52,South,173,4.0,4.0,25,0.00,,,0.00,Wunderground v.1.15,2013-01-16 03:10:00,
2013-01-15 19:20:00,37.3,3.7,30.53,South,173,1.0,1.0,24,0.00,,,0.00,Wunderground v.1.15,2013-01-16 03:20:00,
2013-01-15 19:30:00,38.0,5.2,30.53,South,173,1.0,10.0,25,0.00,,,0.00,Wunderground v.1.15,2013-01-16 03:30:00,
2013-01-15 19:40:00,38.2,5.4,30.53,South,172,4.0,4.0,25,0.00,,,0.00,Wunderground v.1.15,2013-01-16 03:40:00,
2013-01-15 19:50:00,37.5,4.8,30.54,South,173,4.0,10.0,25,0.00,,,0.00,Wunderground v.1.15,2013-01-16 03:50:00,
2013-01-15 20:00:00,37.7,5.0,30.54,South,173,5.0,10.0,25,0.00,,,0.00,Wunderground v.1.15,2013-01-16 04:00:00,
2013-01-15 20:10:00,38.0,5.2,30.54,South,173,3.0,10.0,25,0.00,,,0.00,Wunderground v.1.15,2013-01-16 04:10:00,
2013-01-15 20:20:00,37.3,4.6,30.54,South,173,3.0,10.0,25,0.00,,,0.00,Wunderground v.1.15,2013-01-16 04:20:00,
2013-01-15 20:30:00,36.1,3.6,30.54,South,173,5.0,10.0,25,0.00,,,0.00,Wunderground v.1.15,2013-01-16 04:30:00,
2013-01-15 20:40:00,35.7,4.1,30.54,South,172,5.0,5.0,26,0.00,,,0.00,Wunderground v.1.15,2013-01-16 04:40:00,
2013-01-15 20:50:00,36.4,4.7,30.54,South,172,5.0,5.0,26,0.00,,,0.00,Wunderground v.1.15,2013-01-16 04:50:00,
2013-01-15 21:10:00,37.7,5.8,30.55,South,172,3.0,3.0,26,0.00,,,0.00,Wunderground v.1.15,2013-01-16 05:10:00,
2013-01-15 21:20:00,37.0,5.2,30.55,South,173,4.0,10.0,26,0.00,,,0.00,Wunderground v.1.15,2013-01-16 05:20:00,
2013-01-15 21:30:00,37.5,5.7,30.55,South,173,3.0,10.0,26,0.00,,,0.00,Wunderground v.1.15,2013-01-16 05:30:00,
2013-01-15 21:40:00,36.2,4.5,30.55,South,173,3.0,3.0,26,0.00,,,0.00,Wunderground v.1.15,2013-01-16 05:40:00,
2013-01-15 21:50:00,34.3,3.7,30.56,South,173,0.0,10.0,27,0.00,,,0.00,Wunderground v.1.15,2013-01-16 05:50:00,
2013-01-15 22:00:00,33.8,3.3,30.56,South,173,1.0,1.0,27,0.00,,,0.00,Wunderground v.1.15,2013-01-16 06:00:00,
2013-01-15 22:10:00,33.7,4.8,30.56,South,173,1.0,10.0,29,0.00,,,0.00,Wunderground v.1.15,2013-01-16 06:10:00,
2013-01-15 22:20:00,34.7,5.6,30.56,South,172,4.0,10.0,29,0.00,,,0.00,Wunderground v.1.15,2013-01-16 06:20:00,
2013-01-15 22:30:00,35.8,6.6,30.56,South,172,4.0,4.0,29,0.00,,,0.00,Wunderground v.1.15,2013-01-16 06:30:00,
2013-01-15 22:40:00,35.3,5.4,30.56,South,173,3.0,10.0,28,0.00,,,0.00,Wunderground v.1.15,2013-01-16 06:40:00,
2013-01-15 22:50:00,34.4,3.8,30.56,South,172,4.0,10.0,27,0.00,,,0.00,Wunderground v.1.15,2013-01-16 06:50:00,
2013-01-15 23:00:00,34.4,5.4,30.57,South,172,5.0,5.0,29,0.00,,,0.00,Wunderground v.1.15,2013-01-16 07:00:00,
2013-01-15 23:10:00,33.5,3.8,30.57,South,172,2.0,10.0,28,0.00,,,0.00,Wunderground v.1.15,2013-01-16 07:10:00,
2013-01-15 23:20:00,30.2,2.4,30.57,South,173,1.0,10.0,30,0.00,,,0.00,Wunderground v.1.15,2013-01-16 07:20:00,
2013-01-15 23:30:00,29.8,2.8,30.56,South,173,2.0,10.0,31,0.00,,,0.00,Wunderground v.1.15,2013-01-16 07:30:00,
2013-01-15 23:40:00,30.3,3.2,30.57,South,172,2.0,10.0,31,0.00,,,0.00,Wunderground v.1.15,2013-01-16 07:40:00,
2013-01-15 23:50:00,31.8,4.5,30.57,South,173,1.0,1.0,31,0.00,,,0.00,Wunderground v.1.15,2013-01-16 07:50:00,